カタログに戻る

STARLINK-34032

運用中通信VLEO
NORAD 63853·PAYLOAD·🇺🇸 United States

打ち上げ May 7, 2025 から Cape Canaveral Space Force Station

Loading…

次のパス (今後24時間)

TLE

最新Source: CelesTrak SupGP

元期: Sep 15, 2026, 02:18 UTC

1 63853C 25093T   26258.09631944  .00010394  00000+0  37629-3 0  2587
2 63853  43.0025  88.0561 0001069 288.8055 347.4149 15.27588990    18

AllMySatでSTARLINK-34032をリアルタイム追跡

Download on the App Store